This is the latest recevied weather packets stored in our database for station/object KA5FVT. If no packets are shown the sender has not sent any weather packets the latest 10 day(s).
| Time | Temp. | Humidity | Pressure | Rain* | Wind** | Luminosity | Snow |
|---|---|---|---|---|---|---|---|
| 1777512866 | 27.22° C | 74% | 1009.1 hPa | 0 mm | - | - | - |
| 1777511066 | 27.78° C | 73% | 1008.9 hPa | 0 mm | - | - | - |
| 1777510766 | 28.33° C | 72% | 1008.9 hPa | 0 mm | - | - | - |
| 1777509569 | 28.89° C | 71% | 1008.5 hPa | 0 mm | - | - | - |
| 1777508066 | 28.89° C | 70% | 1008.6 hPa | 0 mm | - | - | - |
| 1777507466 | 29.44° C | 69% | 1008.5 hPa | 0 mm | - | - | - |
| 1777507166 | 29.44° C | 70% | 1008.6 hPa | 0 mm | - | - | - |
| 1777505066 | 30° C | 67% | 1008.4 hPa | 0 mm | - | - | - |
| 1777504467 | 30° C | 67% | 1008.2 hPa | 0 mm | - | - | - |
| 1777504166 | 30.56° C | 66% | 1008 hPa | 0 mm | - | - | - |
| 1777502669 | 31.11° C | 66% | 1008 hPa | 0 mm | - | - | - |
| 1777501766 | 30.56° C | 66% | 1007.6 hPa | 0 mm | - | - | - |
| 1777501469 | 30.56° C | 67% | 1007.7 hPa | 0 mm | - | - | - |
| 1777499966 | 30.56° C | 66% | 1009.1 hPa | 0 mm | - | - | - |
| 1777499366 | 30.56° C | 65% | 1009.1 hPa | 0 mm | - | - | - |
| 1777489769 | 30.56° C | 68% | 1010.3 hPa | 0 mm | - | - | - |
| 1777488866 | 30.56° C | 68% | 1010.9 hPa | 0 mm | - | - | - |
| 1777487666 | 30.56° C | 67% | 1011.4 hPa | 0 mm | - | - | - |
| 1777486166 | 30° C | 70% | 1011.5 hPa | 0 mm | - | - | - |
| 1777485569 | 30° C | 70% | 1011.8 hPa | 0 mm | - | - | - |
| 1777482569 | 28.89° C | 74% | 1012.6 hPa | 0 mm | - | - | - |
| 1777481966 | 28.33° C | 74% | 1012.6 hPa | 0 mm | - | - | - |
| 1777478667 | 27.78° C | 76% | 1012.8 hPa | 0 mm | - | - | - |
| 1777475669 | 27.22° C | 79% | 1012.1 hPa | 0 mm | - | - | - |
| 1777474766 | 27.22° C | 80% | 1012.4 hPa | 0 mm | - | - | - |
* Rain latest hour (hover to see other rain measurements)
** Current wind speed in m/s (hover to see current wind gust speed)